Location: Squirrel Cove
(50.1074°N, 124.9139°W)
Time: 20:00:39
(UTC-08:00)

Envisat - Pass Details

Date: 30 November 2022
Orbit: 763 x 765 km, 98.2° (Epoch: 05 February)

Event Time Altitude Azimuth Distance (km) Brightness Sun altitude
Rises 04:51:38 0° 13° (NNE) 3,247 6.4 -28.6°
Reaches altitude 10° 04:53:57 10° 13° (NNE) 2,316 5.6 -28.3°
Enters shadow 04:57:14 41° 9° (N) 1,103 3.8 -27.7°
